| time (UTC) | temp C | wind direction | speed KPH | gust KPH | rain 1hr cm | rain 24hr cm | rain mn cm | humidity % | barometer mb |
| 20260903204531 | 15 | 142 | 4.8 | 14.5 | 0.00 | 3.84 | 3.76 | 85 | 1010.3 |
| 20260903203029 | 15 | 151 | 4.8 | 16.1 | 0.00 | 3.84 | 3.76 | 88 | 1010.3 |
| 20260903201532 | 15 | 132 | 3.2 | 20.9 | 0.00 | 3.84 | 3.76 | 88 | 1010.3 |
| 20260903200025 | 14 | 125 | 9.7 | 19.3 | 0.03 | 3.84 | 3.76 | 87 | 1010.2 |
| 20260903194527 | 14 | 112 | 9.7 | 20.9 | 0.03 | 3.84 | 3.76 | 89 | 1010.2 |
| 20260903193021 | 14 | 132 | 6.4 | 22.5 | 0.03 | 3.84 | 3.76 | 93 | 1010.3 |
| 20260903191519 | 13 | 74 | 3.2 | 9.7 | 0.03 | 3.84 | 3.76 | 94 | 1010.2 |
| 20260903190019 | 13 | 155 | 6.4 | 19.3 | 0.00 | 3.86 | 3.73 | 92 | 1010.4 |
| 20260903184517 | 13 | 104 | 3.2 | 16.1 | 0.00 | 3.86 | 3.73 | 95 | 1010.5 |
| 20260903183014 | 13 | 134 | 1.6 | 12.9 | 0.00 | 3.86 | 3.73 | 98 | 1010.3 |
| 20260903181512 | 13 | 101 | 4.8 | 16.1 | 0.00 | 3.86 | 3.73 | 98 | 1010.4 |
| 20260903180035 | 13 | 134 | 3.2 | 11.3 | 0.00 | 3.96 | 3.73 | 100 | 1010.5 |
| 20260903174511 | 13 | 85 | 0.0 | 12.9 | 0.00 | 3.96 | 3.73 | 100 | 1010.6 |
| 20260903173010 | 12 | 85 | 1.6 | 12.9 | 0.10 | 3.96 | 3.73 | 100 | 1010.5 |
| 20260903171512 | 12 | 108 | 1.6 | 9.7 | 0.20 | 3.96 | 3.73 | 100 | 1010.4 |
| 20260903170013 | 11 | 133 | 4.8 | 12.9 | 0.20 | 4.06 | 3.73 | 100 | 1010.4 |
| 20260903164509 | 11 | 100 | 0.0 | 0.0 | 0.30 | 4.06 | 3.73 | 100 | 1010.4 |
| 20260903163010 | 11 | 90 | 0.0 | 3.2 | 0.23 | 3.96 | 3.63 | 100 | 1010.5 |
| 20260903161507 | 11 | 90 | 0.0 | 8.0 | 0.13 | 3.86 | 3.53 | 100 | 1010.6 |
| 20260903160005 | 11 | 120 | 3.2 | 6.4 | 0.20 | 3.91 | 3.53 | 100 | 1010.5 |
| 20260903154507 | 11 | 183 | 0.0 | 0.0 | 0.13 | 3.81 | 3.43 | 100 | 1010.3 |
| 20260903153002 | 11 | 114 | 0.0 | 8.0 | 0.13 | 3.78 | 3.40 | 100 | 1010.1 |
| 20260903043037 | 13 | 200 | 6.4 | 17.7 | 0.00 | 0.43 | 0.43 | 97 | 1009.2 |
| 20260903041538 | 13 | 180 | 9.7 | 19.3 | 0.00 | 0.43 | 0.43 | 97 | 1009.1 |
| 20260903040038 | 13 | 205 | 9.7 | 16.1 | 0.00 | 0.43 | 0.43 | 98 | 1009.0 |
| 20260903034540 | 13 | 188 | 6.4 | 17.7 | 0.00 | 0.43 | 0.43 | 97 | 1008.9 |
| 20260903033041 | 13 | 184 | 6.4 | 16.1 | 0.00 | 0.43 | 0.43 | 98 | 1008.8 |
| 20260903031534 | 13 | 182 | 3.2 | 11.3 | 0.00 | 0.43 | 0.43 | 97 | 1008.8 |
| 20260903030034 | 14 | 184 | 6.4 | 12.9 | 0.00 | 0.43 | 0.43 | 96 | 1008.7 |
| 20260903024535 | 14 | 174 | 6.4 | 14.5 | 0.00 | 0.43 | 0.43 | 95 | 1008.7 |
| 20260903023032 | 14 | 214 | 6.4 | 17.7 | 0.00 | 0.43 | 0.43 | 95 | 1008.7 |
| 20260903021538 | 15 | 199 | 6.4 | 14.5 | 0.03 | 0.43 | 0.43 | 95 | 1008.7 |
| 20260903020030 | 15 | 178 | 6.4 | 12.9 | 0.03 | 0.43 | 0.43 | 96 | 1008.5 |
| 20260903014540 | 15 | 201 | 3.2 | 9.7 | 0.03 | 0.43 | 0.43 | 96 | 1008.6 |
| 20260903013032 | 16 | 216 | 9.7 | 30.6 | 0.03 | 0.43 | 0.43 | 92 | 1008.6 |
| 20260903011529 | 16 | 209 | 8.0 | 17.7 | 0.00 | 0.41 | 0.41 | 88 | 1008.4 |
| 20260903010030 | 17 | 211 | 8.0 | 20.9 | 0.00 | 0.41 | 0.41 | 84 | 1008.4 |
| 20260903004534 | 17 | 220 | 9.7 | 22.5 | 0.00 | 0.41 | 0.41 | 84 | 1008.3 |
| 20260903003027 | 17 | 224 | 6.4 | 20.9 | 0.00 | 0.41 | 0.41 | 87 | 1008.2 |
| 20260903001524 | 17 | 205 | 11.3 | 29.0 | 0.00 | 0.41 | 0.41 | 88 | 1008.2 |
| 20260903000024 | 17 | 223 | 12.9 | 27.4 | 0.00 | 0.41 | 0.41 | 87 | 1008.1 |
| 20260902234524 | 16 | 172 | 12.9 | 20.9 | 0.00 | 0.41 | 0.41 | 92 | 1008.1 |
| 20260902233022 | 16 | 202 | 4.8 | 22.5 | 0.00 | 0.41 | 0.41 | 94 | 1008.0 |
| 20260902231523 | 16 | 190 | 12.9 | 27.4 | 0.00 | 0.41 | 0.41 | 89 | 1007.9 |
| 20260902230022 | 17 | 213 | 11.3 | 32.2 | 0.00 | 0.41 | 0.41 | 86 | 1007.7 |
| 20260902224521 | 17 | 183 | 12.9 | 30.6 | 0.00 | 0.41 | 0.41 | 89 | 1007.5 |
| 20260902223019 | 17 | 197 | 14.5 | 32.2 | 0.00 | 0.41 | 0.41 | 91 | 1007.4 |
| 20260902221517 | 16 | 184 | 16.1 | 29.0 | 0.00 | 0.41 | 0.41 | 91 | 1007.2 |
| 20260902220013 | 16 | 217 | 14.5 | 37.0 | 0.00 | 0.41 | 0.41 | 96 | 1007.0 |
| 20260902214511 | 16 | 211 | 12.9 | 27.4 | 0.05 | 0.41 | 0.41 | 96 | 1007.1 |
| 20260902213007 | 15 | 200 | 11.3 | 22.5 | 0.05 | 0.41 | 0.41 | 99 | 1006.9 |
| 20260902211504 | 15 | 217 | 16.1 | 30.6 | 0.05 | 0.41 | 0.41 | 100 | 1006.5 |
| 20260902210003 | 15 | 214 | 14.5 | 27.4 | 0.05 | 0.41 | 0.41 | 100 | 1006.0 |